Regional Weather Roundup
Issued by NWS Sterling, VA

Home | Current Version | Previous Version | Text Only | Print | Product List | Glossary On
Versions: 1 2 3 4 5 6 7 8 9 10 11 12 13 14 15 16 17 18 19 20 21 22 23 24 25 26 27 28 29 30 31 32 33 34 35 36 37 38 39 40 41 42 43 44 45 46 47 48 49 50
427
ASUS41 KLWX 040310
RWRLWX

REGIONAL WEATHER ROUNDUP
NATIONAL WEATHER SERVICE BALTIMORE MD/WASHINGTON DC
1000 PM EST SAT DEC 03 2016

Note: "FAIR" indicates few or no clouds below 12,000 feet
with no significant weather and/or obstructions to visibility.
 TC=TEMPERATURE CELSIUS

 * =Non NWS site. Station does not report precipitation (e.g. rain,
    snow, etc.), thunder, or fog.

DCZ001-MDZ009-015-VAZ040>042-051-053>054-040400-
WASHINGTON METRO

CITY           SKY/WX    TMP DP  RH WIND       PRES   REMARKS
WASHINGTON NAT MOCLDY    43  29  57 W13       30.28R
DULLES         MOCLDY    40  28  62 W10       30.28R
ANDREWS AFB    PTCLDY    40  28  61 NW8       30.25R
FT BELVOIR     MOCLDY    41  28  59 NW5       30.28R
QUANTICO       PTCLDY    41  27  57 N8        30.30R
COLLEGE PARK*  MOCLDY    41  28  60 W8        30.26R
LEESBURG*      CLOUDY    41  32  70 W15       30.29R
GAITHERSBURG*  CLOUDY    39  27  60 W10       30.29S

$$

MDZ006>007-011-014-040400-
BALTIMORE METRO

CITY           SKY/WX    TMP DP  RH WIND       PRES   REMARKS
BWI AIRPORT    MOCLDY    41  30  65 W13       30.24R
MD SCIENCE CTR   N/A     44  28  53 MISG      30.25R
MARTIN STATE   CLOUDY    45  34  65 SW6       30.25R
ANNAPOLIS      CLOUDY    44  30  57 NW7       30.25R
FORT MEADE*    CLOUDY    39  30  70 W7        30.27S

$$

MDZ012-015-019>023-040400-
MARYLAND EASTERN SHORE

CITY           SKY/WX    TMP DP  RH WIND       PRES   REMARKS
OCEAN CITY     PTCLDY    41  30  65 W7        30.22R
SALISBURY      CLOUDY    41  31  67 W8        30.24R
BAY BRIDGE AP* CLOUDY    43  32  65 NW12G21   30.25R
CAMBRIDGE*     PTCLDY    41  32  70 W6        30.25R
EASTON*        PTCLDY    43  30  61 NW12      30.28R

$$

MDZ017>025-040400-
SOUTHERN MARYLAND

CITY           SKY/WX    TMP DP  RH WIND       PRES   REMARKS
PATUXENT RIVER PTCLDY    41  28  60 W12       30.26R
ST INIGOES     MOCLDY    42  29  59 NW8       30.26R
LEONARDTOWN*   MOCLDY    39  28  65 W5        30.29R

$$

MDZ003>005-040400-
NORTH CENTRAL MARYLAND

CITY           SKY/WX    TMP DP  RH WIND       PRES   REMARKS
FREDERICK*     CLOUDY    41  32  70 W9        30.29R
HAGERSTOWN APT CLOUDY    41  28  60 W7        30.25R
WESTMINSTER*   CLOUDY    39  28  65 W8        30.22R

$$

MDZ501>502-040400-
WESTERN MARYLAND

CITY           SKY/WX    TMP DP  RH WIND       PRES   REMARKS
OAKLAND*       CLOUDY    27  23  86 NW8       30.21S WCI  18
CUMBERLAND*    NOT AVBL

$$

VAZ025>031-040400-
SHENANDOAH VALLEY

CITY           SKY/WX    TMP DP  RH WIND       PRES   REMARKS
WINCHESTER*    CLOUDY    36  27  69 W12       30.29S WCI  27
FRONT ROYAL*   FAIR      36  28  75 CALM      30.29R
LURAY*         FAIR      34  30  86 NE3       30.28S
NEW MARKET*    FAIR      31  26  81 CALM      30.28S
STAUNTON*      PTCLDY    33  27  77 NE6       30.28S
WAYNESBORO*    FAIR      34  27  75 NW5       30.26R

$$

WVZ021-048>050-054>055-040400-
EASTERN WEST VIRGINIA PANHANDLE

CITY           SKY/WX    TMP DP  RH WIND       PRES   REMARKS
MARTINSBURG    CLOUDY    39  27  62 W8        30.28R
PETERSBURG*    CLOUDY    34  29  84 CALM      30.30S

$$

VAZ036>039-050-040400-
CENTRAL FOOTHILLS

CITY           SKY/WX    TMP DP  RH WIND       PRES   REMARKS
CHARLOTTESVILL PTCLDY    39  28  64 NE5       30.27R
CULPEPER*      CLOUDY    37  29  73 CALM      30.30S
ORANGE*          N/A     37  30  75 CALM      30.30R
GORDONSVILLE*  FAIR      34  29  82 CALM      30.28R
WARRENTON*     FAIR      38  24  57 N5        30.29R

$$

VAZ055>057-040400-
NORTH AND CENTRAL PIEDMONT

CITY           SKY/WX    TMP DP  RH WIND       PRES   REMARKS
FREDERICKSBRG* PTCLDY    40  30  66 N7        30.28S
STAFFORD*      PTCLDY    38  28  67 N7        30.33S

$$

NCZ024-NYZ072-PAZ021-071-VAZ022-071-040400-
OTHER REGIONAL OBSERVATIONS

CITY           SKY/WX    TMP DP  RH WIND       PRES   REMARKS
NEW YORK CITY  CLOUDY    43  26  51 NW13      30.16R
PHILADELPHIA   CLOUDY    47  30  51 W14       30.19R
PITTSBURGH     CLOUDY    37  28  70 W5        30.28S
ROANOKE        CLOUDY    39  26  59 NW8       30.29R
RICHMOND       CLOUDY    40  29  64 N8        30.28
RALEIGH        CLOUDY    46  29  51 N3        30.29R

$$

ANZ530>537-040400-
MARINE OBSERVATIONS

STATION/POSITION TIME  TEMP    WIND        PRES
                       AIR SEA DIR/SP/G
                 (UTC) (F)     (DEG/KT/KT) (MB)
THOMAS PT LIGHT  0300   42 49  290/ 15/ 17   N/A
BALT KEY BRIDGE  0248   43     260/ 12/ 15 1024.0R
COVE POINT       0248   42     310/ 11/ 16 1025.3R
LEWISETTA        0248   44 49  340/ 11/ 14 1024.7R
SOLOMONS ISLAND  0242   42 51  290/  8/ 11   N/A
PINEY POINT      0248          350/ 20/ 22   N/A

$$





USA.gov is the U.S. government's official web portal to all federal, state and local government web resources and services.